CYGFM05 (41884 NORAD) Tracking and Keplerian Element Data

This shows tracking and keplerian element data for the satellite.

Feedback or suggestion? Click here.




ElementValue
Catalog41884
NameCYGFM05
Epoch Orbit13516
Epoch Day145.88425329
Epoch Year2019
RAAN313.1775
Inclination34.957
Eccentricity0.0015813
Argument of Perigee179.7204
Mean Anonmoly180.3518
Mean Motion15.14386678
Decay Rate2.07E-06
L11 41884U 16078A 19145.88425329 .00000207 00000-0 12732-4 0 9996
L22 41884 34.9570 313.1775 0015813 179.7204 180.3518 15.14386678135161

Live tracking and technical data element details for CYGFM05 (NORAD 41884). CYGFM05 can be tracked NOW for your location showing map with azimuth and elevation plus other details from your city location.

Track the satellite on the map from your city or location and see movement details for azimuth, elevation, latitude, longitude, range, height, and movement on the map or in text.







IsCatalogInMostPopularTable: catalog: 41884, numindb: 206
Update: records affected: 1



GetName: 41884 CYGFM05

Hit Count: updated at: Sun, 26 May 2019 18:58:18 GMT